Location: Unspecified
(17.6330°N, 0.0000°E)
Time: 17:16:58
(UTC+00:00)

S-56A Canister/Altair - Pass Details

Date: 01 July 2019
Orbit: 632 x 2500 km, 38.9° (Epoch: 21 July)

Event Time Altitude Azimuth Distance (km) Brightness Sun altitude
Rises 19:00:45 0° 311° (NW) 4,223 13.2 -5.5°
Reaches altitude 10° 19:04:11 10° 316° (NW) 2,958 11.9 -6.3°
Maximum altitude 19:10:44 50° 31° (NNE) 1,050 8.2 -7.7°
Enters shadow 19:15:27 10° 107° (ESE) 2,148 9.2 -8.7°
Drops below altitude 10° 19:15:29 10° 107° (ESE) 2,157 - -8.7°
Sets 19:17:38 0° 113° (ESE) 2,983 - -9.1°
